Regional Weather Roundup
Issued by NWS

Home | Current Version | Previous Version | Graphics & Text | Print | Product List | Glossary On
Versions: 1 2 3 4 5 6 7 8 9 10 11 12 13 14 15 16 17 18 19 20 21 22 23 24 25 26 27 28 29 30 31 32 33 34 35 36 37 38 39 40 41 42 43 44 45 46 47 48 49 50
021
ASUS45 KSLC 300110
RWRUT

UTAH REGIONAL WEATHER ROUNDUP
NATIONAL WEATHER SERVICE SALT LAKE CITY UT
700 PM MDT FRI APR 29 2016

UTZ001>011-023>025-300200-

NORTHERN UTAH

CITY           SKY/WX    TMP DP  RH WIND       PRES   REMARKS
BRIGHAM CITY   MOSUNNY   55  32  42 SW3       29.82S
HILL AFB       PTSUNNY   52  38  58 W8        29.81F
LOGAN          MOSUNNY   55  36  48 W12       29.80S
OGDEN          MOSUNNY   52  37  56 W8        29.81S
PROVO AIRPORT  MOSUNNY   52  37  58 SW14      29.83S
SALT LAKE CITY PTSUNNY   54  37  52 W10       29.81F
VERNAL         CLOUDY    49  36  61 VRB6      29.81S
WENDOVER       PTSUNNY   52  36  54 SW7       29.83S
HEBER CITY     MOSUNNY   50  34  53 SW8       29.79F

$$

UTZ012>022-026-027-300200-

SOUTHERN/CENTRAL UTAH

CITY           SKY/WX    TMP DP  RH WIND       PRES   REMARKS
BLANDING       PTSUNNY   44  38  82 NW14      29.90S
BRYCE CANYON   MOSUNNY   43  30  60 W15       29.88F
CEDAR CITY     CLOUDY    49  34  56 CALM      29.87R
DELTA            N/A     54  34  47 N14G20    29.82S
HANKSVILLE     MOSUNNY   55  36  47 NE8       29.79S
MILFORD        LGT RAIN  51  40  65 SW15      29.83F
MOAB/CYNLANDS  PTSUNNY   53  38  56 W10       29.77R
PRICE          MOSUNNY   51  30  44 N15       29.79R
ST GEORGE      MOCLDY    61  41  48 SE6       29.83S

$$

REGIONAL REPORTS     COLORADO/ARIZONA

CITY           SKY/WX    TMP DP  RH WIND       PRES   REMARKS
CRAIG, CO      CLOUDY    46  33  60 N14       29.80R
GRAND JUNCTION MOSUNNY   53  36  52 W13       29.75R
RIFLE          LGT RAIN  45  39  79 SW12      29.79R
MONTROSE       CLOUDY    48  33  56 SW15G23   29.79R
CORTEZ         MOSUNNY   51  29  42 W10       29.81R
PAGE, AZ       MOSUNNY   60  35  39 SW12G23   29.77S
GRAND CANYON   PTSUNNY   50  32  50 W9        29.90S
KINGMAN        MOSUNNY   68  35  29 W12G18    29.83F
FLAGSTAFF      LGT RAIN  45  37  73 SW15      29.92S

$$

REGIONAL REPORTS    NEVADA/IDAHO/WYOMING

CITY           SKY/WX    TMP DP  RH WIND       PRES   REMARKS
LAS VEGAS, NV  MOSUNNY   76  36  23 E7        29.68F
ELY            CLOUDY    46  35  65 N7        29.88F
ELKO           CLOUDY    47  37  68 SW5       29.86F
POCATELLO, ID  PTSUNNY   46  41  82 W15       29.86R
BURLEY         PTSUNNY   49  42  77 S8        29.81F
EVANSTON, WY   CLOUDY    43  27  53 E7        29.85F
ROCK SPRINGS   CLOUDY    39  29  67 NE15      29.88F WCI  31
KEMMERER         N/A     41  28  60 SE5       29.87F

$$




USA.gov is the U.S. government's official web portal to all federal, state and local government web resources and services.